When you browse on this site, cookies collect data to enhance your experience and personalize the content and advertising you see.
Visit our Privacy Policy to learn more. By continuing to use the site, you agree to this use of cookies and data.
  • In Hungary
  • List of Countries
  • For 7 days
  • Water Temperature
  • Satellite Maps
  • Weather Map
  • News
  • Weather Widgets
  • user-avatar
    Login

    Hourly Weather Elenka

    Today, 24 January, Thursday

    Time Temperature Precipitation Wind Pressure Humidity
    00:00 -15°C° 0.3 mm 4 mps 745 mmHg 94%
    01:00 -15°C° 0.3 mm 4 mps 744 mmHg 94%
    02:00 -15°C° 0 mm 4 mps 744 mmHg 94%
    03:00 -15°C° 0.3 mm 4 mps 743 mmHg 94%
    04:00 -15°C° 0.3 mm 4 mps 743 mmHg 93%
    05:00 -15°C° 0.3 mm 4 mps 742 mmHg 93%
    06:00 -16°C° 0.1 mm 4 mps 742 mmHg 93%
    07:00 -16°C° 0.1 mm 4 mps 742 mmHg 93%
    08:00 -15°C° 0 mm 3 mps 742 mmHg 93%
    09:00 -15°C° 0 mm 3 mps 742 mmHg 93%
    10:00 -15°C° 0 mm 3 mps 742 mmHg 92%
    11:00 -14°C° 0 mm 3 mps 742 mmHg 92%
    12:00 -14°C° 0 mm 3 mps 743 mmHg 91%
    13:00 -14°C° 0 mm 3 mps 743 mmHg 91%
    14:00 -14°C° 0 mm 3 mps 743 mmHg 91%
    15:00 -14°C° 0 mm 3 mps 744 mmHg 92%
    16:00 -15°C° 0 mm 3 mps 744 mmHg 94%
    17:00 -15°C° 0 mm 2 mps 745 mmHg 96%
    18:00 -16°C° 0 mm 2 mps 745 mmHg 96%
    19:00 -16°C° 0 mm 2 mps 746 mmHg 97%
    20:00 -17°C° 0 mm 2 mps 746 mmHg 97%
    21:00 -18°C° 0 mm 2 mps 746 mmHg 97%
    22:00 -18°C° 0 mm 2 mps 747 mmHg 96%
    23:00 -18°C° 0 mm 2 mps 747 mmHg 95%

    Tomorrow, 25 January, Friday

    Time Temperature Precipitation Wind Pressure Humidity
    00:00 -19°C° 0 mm 2 mps 748 mmHg 96%
    01:00 -19°C° 0 mm 2 mps 748 mmHg 97%
    02:00 -19°C° 0 mm 2 mps 748 mmHg 98%
    03:00 -19°C° 0 mm 2 mps 749 mmHg 98%
    04:00 -19°C° 0 mm 2 mps 749 mmHg 98%
    05:00 -20°C° 0 mm 2 mps 750 mmHg 99%
    06:00 -20°C° 0 mm 2 mps 750 mmHg 99%
    07:00 -20°C° 0 mm 2 mps 751 mmHg 99%
    08:00 -20°C° 0 mm 2 mps 751 mmHg 99%
    09:00 -19°C° 0 mm 2 mps 752 mmHg 96%
    10:00 -18°C° 0 mm 2 mps 752 mmHg 93%
    11:00 -16°C° 0 mm 2 mps 752 mmHg 90%
    12:00 -16°C° 0 mm 2 mps 752 mmHg 90%
    13:00 -16°C° 0 mm 2 mps 752 mmHg 90%
    14:00 -15°C° 0 mm 2 mps 752 mmHg 90%
    15:00 -16°C° 0 mm 2 mps 752 mmHg 91%
    16:00 -18°C° 0 mm 3 mps 752 mmHg 91%
    17:00 -19°C° 0 mm 3 mps 752 mmHg 92%
    18:00 -21°C° 0 mm 3 mps 752 mmHg 92%
    19:00 -21°C° 0 mm 3 mps 752 mmHg 91%
    20:00 -22°C° 0 mm 3 mps 752 mmHg 91%
    21:00 -23°C° 0 mm 4 mps 751 mmHg 90%
    22:00 -23°C° 0 mm 4 mps 751 mmHg 90%
    23:00 -23°C° 0 mm 4 mps 750 mmHg 89%

    Day after tomorrow, 26 January, Saturday

    Time Temperature Precipitation Wind Pressure Humidity
    00:00 -22°C° 0 mm 4 mps 750 mmHg 88%
    01:00 -22°C° 0 mm 5 mps 749 mmHg 86%
    02:00 -21°C° 0 mm 5 mps 749 mmHg 85%
    03:00 -20°C° 0.1 mm 5 mps 748 mmHg 87%
    04:00 -20°C° 0.1 mm 5 mps 747 mmHg 88%
    05:00 -19°C° 0.1 mm 5 mps 746 mmHg 90%
    06:00 -19°C° 0.5 mm 5 mps 745 mmHg 91%
    07:00 -19°C° 0.5 mm 5 mps 745 mmHg 93%
    08:00 -18°C° 0.5 mm 5 mps 744 mmHg 94%
    09:00 -18°C° 0.8 mm 5 mps 743 mmHg 95%
    10:00 -17°C° 0.8 mm 5 mps 743 mmHg 95%
    11:00 -15°C° 0.8 mm 5 mps 742 mmHg 95%
    12:00 -14°C° 0.6 mm 5 mps 741 mmHg 95%
    13:00 -12°C° 0.6 mm 4 mps 740 mmHg 95%
    14:00 -11°C° 0.6 mm 4 mps 740 mmHg 94%
    15:00 -11°C° 0.6 mm 4 mps 739 mmHg 94%
    16:00 -10°C° 0.6 mm 4 mps 738 mmHg 94%
    17:00 -10°C° 0.6 mm 4 mps 738 mmHg 94%
    18:00 -9°C° 0.3 mm 4 mps 737 mmHg 94%
    19:00 -8°C° 0.3 mm 4 mps 737 mmHg 94%
    20:00 -7°C° 0.3 mm 4 mps 736 mmHg 94%
    21:00 -5°C° 0.2 mm 4 mps 736 mmHg 94%
    22:00 -4°C° 0.2 mm 4 mps 735 mmHg 94%
    23:00 -3°C° 0.2 mm 4 mps 735 mmHg 94%

    27 January, Sunday

    Time Temperature Precipitation Wind Pressure Humidity
    00:00 -2°C° 0.5 mm 4 mps 734 mmHg 95%
    01:00 -1°C° 0.5 mm 4 mps 734 mmHg 96%
    02:00 -1°C° 0.5 mm 4 mps 733 mmHg 96%
    03:00 -1°C° 0.5 mm 4 mps 733 mmHg 96%
    04:00 0°C° 0.5 mm 3 mps 733 mmHg 96%
    05:00 -1°C° 0.5 mm 3 mps 732 mmHg 96%
    06:00 -1°C° 0.6 mm 2 mps 732 mmHg 97%
    07:00 -1°C° 0.6 mm 2 mps 732 mmHg 97%
    08:00 -2°C° 0.6 mm 2 mps 732 mmHg 97%
    09:00 -2°C° 0.7 mm 2 mps 732 mmHg 97%
    10:00 -2°C° 0.7 mm 2 mps 732 mmHg 97%
    11:00 -2°C° 0.7 mm 2 mps 731 mmHg 97%
    12:00 -2°C° 0.6 mm 2 mps 731 mmHg 97%
    13:00 -3°C° 0.6 mm 2 mps 731 mmHg 97%
    14:00 -3°C° 0.6 mm 2 mps 731 mmHg 97%
    15:00 -5°C° 0.5 mm 3 mps 731 mmHg 96%
    16:00 -7°C° 0.5 mm 4 mps 731 mmHg 95%
    17:00 -8°C° 0.5 mm 4 mps 731 mmHg 95%
    18:00 -9°C° 0.2 mm 4 mps 732 mmHg 94%
    19:00 -9°C° 0.2 mm 4 mps 732 mmHg 94%
    20:00 -10°C° 0.2 mm 4 mps 733 mmHg 94%
    21:00 -11°C° 0 mm 4 mps 733 mmHg 94%
    22:00 -12°C° 0 mm 4 mps 734 mmHg 94%
    23:00 -14°C° 0 mm 4 mps 734 mmHg 95%

    28 January, Monday

    Time Temperature Precipitation Wind Pressure Humidity
    00:00 -15°C° 0 mm 4 mps 735 mmHg 95%
    01:00 -15°C° 0 mm 3 mps 736 mmHg 96%
    02:00 -16°C° 0 mm 3 mps 737 mmHg 96%
    03:00 -16°C° 0 mm 3 mps 738 mmHg 96%
    04:00 -16°C° 0 mm 2 mps 738 mmHg 97%
    05:00 -17°C° 0 mm 2 mps 739 mmHg 97%
    06:00 -18°C° 0 mm 2 mps 740 mmHg 97%
    07:00 -16°C° 0 mm 1 mps 740 mmHg 98%
    08:00 -17°C° 0 mm 1 mps 741 mmHg 98%
    09:00 -16°C° 0 mm 1 mps 742 mmHg 96%
    10:00 -14°C° 0 mm 1 mps 742 mmHg 94%
    11:00 -13°C° 0 mm 0 mps 743 mmHg 93%
    12:00 -12°C° 0 mm 0 mps 743 mmHg 92%
    13:00 -12°C° 0 mm 0 mps 743 mmHg 91%
    14:00 -11°C° 0 mm 0 mps 743 mmHg 91%
    15:00 -12°C° 0 mm 1 mps 743 mmHg 91%
    16:00 -15°C° 0 mm 2 mps 743 mmHg 91%
    17:00 -17°C° 0 mm 2 mps 743 mmHg 92%
    18:00 -16°C° 0 mm 2 mps 743 mmHg 91%
    19:00 -17°C° 0 mm 3 mps 743 mmHg 89%
    20:00 -17°C° 0 mm 3 mps 743 mmHg 88%
    21:00 -16°C° 0 mm 3 mps 743 mmHg 87%
    22:00 -15°C° 0 mm 3 mps 743 mmHg 85%
    23:00 -15°C° 0 mm 4 mps 743 mmHg 84%

    29 January, Tuesday

    Time Temperature Precipitation Wind Pressure Humidity
    00:00 -14°C° 0.1 mm 4 mps 743 mmHg 85%
    01:00 -14°C° 0.1 mm 4 mps 742 mmHg 87%
    02:00 -13°C° 0.1 mm 5 mps 742 mmHg 89%
    03:00 -12°C° 0.4 mm 5 mps 742 mmHg 90%
    04:00 -11°C° 0.4 mm 5 mps 741 mmHg 92%
    05:00 -10°C° 0.4 mm 5 mps 740 mmHg 94%
    06:00 -8°C° 0.5 mm 5 mps 740 mmHg 93%
    07:00 -7°C° 0.5 mm 5 mps 740 mmHg 92%
    08:00 -6°C° 0.5 mm 6 mps 739 mmHg 92%
    09:00 -6°C° 0.1 mm 6 mps 739 mmHg 92%
    10:00 -5°C° 0.1 mm 6 mps 739 mmHg 92%
    11:00 -4°C° 0.1 mm 6 mps 739 mmHg 92%
    12:00 -3°C° 0.2 mm 6 mps 738 mmHg 93%
    13:00 -3°C° 0.2 mm 6 mps 738 mmHg 94%
    14:00 -2°C° 0.2 mm 6 mps 737 mmHg 95%
    15:00 -2°C° 0.3 mm 6 mps 738 mmHg 96%
    16:00 -1°C° 0.3 mm 6 mps 738 mmHg 97%
    17:00 0°C° 0.3 mm 5 mps 738 mmHg 98%
    18:00 0°C° 0.1 mm 5 mps 738 mmHg 98%
    19:00 0°C° 0.1 mm 5 mps 738 mmHg 97%
    20:00 -1°C° 0.1 mm 4 mps 739 mmHg 97%
    21:00 -1°C° 0 mm 4 mps 739 mmHg 96%
    22:00 -1°C° 0 mm 4 mps 739 mmHg 95%
    23:00 -1°C° 0 mm 4 mps 740 mmHg 93%
    Show more